When you browse on this site, cookies collect data to enhance your experience and personalize the content and advertising you see.
Visit our Privacy Policy to learn more. By continuing to use the site, you agree to this use of cookies and data.
  • Em Portugal
  • Lista de países
  • Para 7 dias
  • Temperatura da água
  • Mapas de satélite
  • Mapa do tempo
  • Widgets de tempo
  • user-avatar
    Iniciar Sessão

    Previsão horária em Voropaevschina

    Hoje, 26 Abril, Sexta-feira

    Tempo Temperatura Precipitação Vento Pressão Humidade
    00:00 +13°C° 0 mm 2 m/s 752 mmHg 60%
    01:00 +12°C° 0 mm 2 m/s 752 mmHg 61%
    02:00 +10°C° 0 mm 1 m/s 751 mmHg 64%
    03:00 +10°C° 0 mm 1 m/s 751 mmHg 64%
    04:00 +10°C° 0 mm 1 m/s 751 mmHg 65%
    05:00 +9°C° 0 mm 2 m/s 751 mmHg 66%
    06:00 +12°C° 0 mm 2 m/s 751 mmHg 63%
    07:00 +14°C° 0 mm 2 m/s 751 mmHg 60%
    08:00 +16°C° 0 mm 2 m/s 751 mmHg 55%
    09:00 +17°C° 0 mm 3 m/s 751 mmHg 50%
    10:00 +19°C° 0 mm 3 m/s 750 mmHg 45%
    11:00 +21°C° 0 mm 3 m/s 750 mmHg 40%
    12:00 +21°C° 0 mm 3 m/s 750 mmHg 39%
    13:00 +22°C° 0 mm 3 m/s 750 mmHg 38%
    14:00 +22°C° 0 mm 3 m/s 750 mmHg 37%
    15:00 +22°C° 0 mm 3 m/s 749 mmHg 39%
    16:00 +22°C° 0 mm 3 m/s 749 mmHg 41%
    17:00 +22°C° 0 mm 3 m/s 748 mmHg 42%
    18:00 +20°C° 0 mm 2 m/s 748 mmHg 50%
    19:00 +18°C° 0 mm 2 m/s 748 mmHg 57%
    20:00 +16°C° 0 mm 2 m/s 748 mmHg 64%
    21:00 +15°C° 0 mm 2 m/s 748 mmHg 67%
    22:00 +15°C° 0 mm 2 m/s 748 mmHg 70%
    23:00 +14°C° 0 mm 2 m/s 747 mmHg 73%

    Amanhã, 27 Abril, Sábado

    Tempo Temperatura Precipitação Vento Pressão Humidade
    00:00 +14°C° 0 mm 2 m/s 747 mmHg 75%
    01:00 +13°C° 0 mm 2 m/s 747 mmHg 77%
    02:00 +13°C° 0 mm 2 m/s 747 mmHg 78%
    03:00 +12°C° 0 mm 2 m/s 746 mmHg 80%
    04:00 +12°C° 0 mm 2 m/s 746 mmHg 81%
    05:00 +12°C° 0 mm 1 m/s 746 mmHg 82%
    06:00 +13°C° 0 mm 2 m/s 746 mmHg 76%
    07:00 +15°C° 0 mm 2 m/s 745 mmHg 70%
    08:00 +17°C° 0 mm 2 m/s 745 mmHg 64%
    09:00 +18°C° 0 mm 2 m/s 745 mmHg 59%
    10:00 +20°C° 0 mm 3 m/s 745 mmHg 55%
    11:00 +22°C° 0 mm 3 m/s 744 mmHg 51%
    12:00 +24°C° 0 mm 2 m/s 744 mmHg 48%
    13:00 +24°C° 0 mm 2 m/s 744 mmHg 46%
    14:00 +25°C° 0 mm 2 m/s 743 mmHg 43%
    15:00 +25°C° 0 mm 2 m/s 743 mmHg 44%
    16:00 +25°C° 0 mm 2 m/s 743 mmHg 45%
    17:00 +24°C° 0 mm 2 m/s 743 mmHg 45%
    18:00 +21°C° 0 mm 2 m/s 743 mmHg 52%
    19:00 +19°C° 0 mm 2 m/s 743 mmHg 60%
    20:00 +19°C° 0 mm 1 m/s 743 mmHg 67%
    21:00 +17°C° 0 mm 2 m/s 743 mmHg 70%
    22:00 +16°C° 0 mm 2 m/s 743 mmHg 73%
    23:00 +15°C° 0 mm 2 m/s 743 mmHg 76%

    Depois de amanhã, 28 Abril, Domingo

    Tempo Temperatura Precipitação Vento Pressão Humidade
    00:00 +15°C° 0 mm 2 m/s 743 mmHg 76%
    01:00 +14°C° 0 mm 2 m/s 743 mmHg 76%
    02:00 +14°C° 0 mm 2 m/s 744 mmHg 76%
    03:00 +14°C° 0 mm 2 m/s 744 mmHg 76%
    04:00 +13°C° 0 mm 2 m/s 744 mmHg 76%
    05:00 +12°C° 0 mm 3 m/s 744 mmHg 76%
    06:00 +13°C° 0 mm 3 m/s 745 mmHg 73%
    07:00 +14°C° 0 mm 4 m/s 745 mmHg 70%
    08:00 +15°C° 0 mm 4 m/s 746 mmHg 67%
    09:00 +16°C° 0 mm 5 m/s 746 mmHg 64%
    10:00 +17°C° 0 mm 5 m/s 746 mmHg 61%
    11:00 +19°C° 0 mm 5 m/s 747 mmHg 58%
    12:00 +19°C° 0 mm 5 m/s 747 mmHg 55%
    13:00 +19°C° 0 mm 5 m/s 747 mmHg 52%
    14:00 +20°C° 0 mm 6 m/s 748 mmHg 48%
    15:00 +19°C° 0 mm 5 m/s 748 mmHg 47%
    16:00 +17°C° 0 mm 5 m/s 748 mmHg 45%
    17:00 +17°C° 0 mm 5 m/s 748 mmHg 43%
    18:00 +15°C° 0 mm 5 m/s 749 mmHg 44%
    19:00 +13°C° 0 mm 4 m/s 749 mmHg 45%
    20:00 +11°C° 0 mm 4 m/s 750 mmHg 46%
    21:00 +10°C° 0 mm 4 m/s 750 mmHg 46%
    22:00 +8°C° 0 mm 4 m/s 751 mmHg 47%
    23:00 +7°C° 0 mm 4 m/s 751 mmHg 47%

    29 Abril, Segunda-feira

    Tempo Temperatura Precipitação Vento Pressão Humidade
    00:00 +6°C° 0 mm 4 m/s 752 mmHg 49%
    01:00 +5°C° 0 mm 4 m/s 752 mmHg 51%
    02:00 +4°C° 0 mm 4 m/s 752 mmHg 53%
    03:00 +4°C° 0 mm 4 m/s 752 mmHg 55%
    04:00 +3°C° 0 mm 4 m/s 752 mmHg 57%
    05:00 +3°C° 0 mm 3 m/s 753 mmHg 59%
    06:00 +4°C° 0 mm 4 m/s 753 mmHg 56%
    07:00 +5°C° 0 mm 4 m/s 753 mmHg 53%
    08:00 +7°C° 0 mm 4 m/s 753 mmHg 50%
    09:00 +8°C° 0 mm 5 m/s 753 mmHg 46%
    10:00 +9°C° 0 mm 5 m/s 753 mmHg 41%
    11:00 +10°C° 0 mm 5 m/s 753 mmHg 37%
    12:00 +12°C° 0 mm 5 m/s 753 mmHg 36%
    13:00 +13°C° 0 mm 4 m/s 753 mmHg 35%
    14:00 +13°C° 0 mm 4 m/s 752 mmHg 34%
    15:00 +13°C° 0 mm 4 m/s 752 mmHg 35%
    16:00 +13°C° 0 mm 4 m/s 752 mmHg 35%
    17:00 +13°C° 0 mm 3 m/s 752 mmHg 36%
    18:00 +11°C° 0 mm 3 m/s 752 mmHg 41%
    19:00 +10°C° 0 mm 2 m/s 752 mmHg 46%
    20:00 +8°C° 0 mm 2 m/s 752 mmHg 51%
    21:00 +7°C° 0 mm 2 m/s 752 mmHg 53%
    22:00 +6°C° 0 mm 2 m/s 752 mmHg 55%
    23:00 +6°C° 0 mm 1 m/s 752 mmHg 56%

    30 Abril, Terça-feira

    Tempo Temperatura Precipitação Vento Pressão Humidade
    00:00 +6°C° 0 mm 1 m/s 752 mmHg 58%
    01:00 +5°C° 0 mm 1 m/s 752 mmHg 59%
    02:00 +5°C° 0 mm 1 m/s 752 mmHg 61%
    03:00 +5°C° 0 mm 1 m/s 751 mmHg 62%
    04:00 +4°C° 0 mm 1 m/s 751 mmHg 63%
    05:00 +4°C° 0 mm 1 m/s 751 mmHg 64%
    06:00 +6°C° 0 mm 1 m/s 751 mmHg 59%
    07:00 +8°C° 0 mm 1 m/s 751 mmHg 53%
    08:00 +10°C° 0 mm 1 m/s 751 mmHg 47%
    09:00 +12°C° 0 mm 1 m/s 751 mmHg 43%
    10:00 +13°C° 0 mm 2 m/s 750 mmHg 38%
    11:00 +14°C° 0 mm 2 m/s 750 mmHg 34%
    12:00 +15°C° 0 mm 2 m/s 750 mmHg 32%
    13:00 +15°C° 0 mm 2 m/s 749 mmHg 31%
    14:00 +16°C° 0 mm 2 m/s 749 mmHg 30%
    15:00 +16°C° 0 mm 2 m/s 749 mmHg 31%
    16:00 +15°C° 0 mm 2 m/s 748 mmHg 32%
    17:00 +15°C° 0 mm 2 m/s 748 mmHg 33%
    18:00 +14°C° 0 mm 2 m/s 748 mmHg 37%
    19:00 +12°C° 0 mm 2 m/s 748 mmHg 41%
    20:00 +10°C° 0 mm 2 m/s 748 mmHg 46%
    21:00 +9°C° 0 mm 2 m/s 748 mmHg 49%
    22:00 +8°C° 0 mm 2 m/s 748 mmHg 52%
    23:00 +7°C° 0 mm 2 m/s 748 mmHg 55%

    1 Maio, Quarta-feira

    Tempo Temperatura Precipitação Vento Pressão Humidade
    00:00 +7°C° 0 mm 2 m/s 747 mmHg 58%
    01:00 +6°C° 0 mm 2 m/s 747 mmHg 60%
    02:00 +5°C° 0 mm 2 m/s 747 mmHg 63%
    03:00 +4°C° 0 mm 2 m/s 747 mmHg 64%
    04:00 +4°C° 0 mm 2 m/s 747 mmHg 65%
    05:00 +3°C° 0 mm 2 m/s 747 mmHg 66%
    06:00 +5°C° 0 mm 2 m/s 747 mmHg 60%
    07:00 +7°C° 0 mm 2 m/s 746 mmHg 55%
    08:00 +9°C° 0 mm 2 m/s 746 mmHg 49%
    09:00 +12°C° 0 mm 2 m/s 746 mmHg 44%
    10:00 +13°C° 0 mm 1 m/s 746 mmHg 40%
    11:00 +15°C° 0 mm 1 m/s 746 mmHg 35%
    12:00 +16°C° 0 mm 1 m/s 745 mmHg 34%
    13:00 +16°C° 0 mm 1 m/s 745 mmHg 33%
    14:00 +15°C° 0 mm 0 m/s 745 mmHg 32%
    15:00 +15°C° 0 mm 0 m/s 744 mmHg 33%
    16:00 +14°C° 0 mm 0 m/s 744 mmHg 34%
    17:00 +14°C° 0 mm 0 m/s 743 mmHg 35%
    18:00 +13°C° 0 mm 0 m/s 743 mmHg 38%
    19:00 +11°C° 0 mm 0 m/s 743 mmHg 41%
    20:00 +10°C° 0 mm 0 m/s 743 mmHg 45%
    21:00 +11°C° 0 mm 1 m/s 742 mmHg 45%
    22:00 +10°C° 0 mm 1 m/s 742 mmHg 46%
    23:00 +10°C° 0 mm 1 m/s 742 mmHg 47%
    Mostrar mais